[[{"header":{"parameterUnit":"m.s-1","parameterCategory":1,"la1":30.2991,"la2":30.254,"lo1":-89.0895,"lo2":-89.0444,"dy":0.0017,"dx":0.0017,"nx":28,"ny":28,"refTime":"2024-10-04T03:00:00:Z","depth":0,"parameterNumber":2,"parameterNumberName":"U-component_of_WINDS"},"data":[0,0,0,0,0,0,0,0,0,0,0,0,0,0,0,0,0,0,0,0,0,0,0,0,0,0,0,0,0,0,0,0,0,0,0,0,0,0,0,0,0,0,0,0,0,0,0,0,0,0,0,0,0,0,0,0,0,0,-4.0947,-4.0948,0,-4.0981,-4.0982,-4.0982,-4.0891,-4.0888,-4.0886,-4.0883,-4.092,-4.0924,-4.0927,0,0,0,0,0,0,0,0,0,0,0,0,0,-4.0806,-4.0809,-4.0947,-4.0948,-4.0948,-4.0981,-4.0982,-4.0982,-4.0892,-4.0888,-4.0885,-4.0882,-4.0919,-4.0923,-4.0928,0,0,0,0,0,0,0,0,0,0,0,0,0,-4.0857,-4.081,-4.0947,-4.0907,-4.0904,-4.0981,-4.0982,-4.0982,-4.0892,-4.0888,-4.0884,-4.088,-4.0918,-4.0923,-4.0928,-4.1047,0,0,-4.0945,-4.0947,0,0,0,0,0,0,0,0,-4.0854,-4.0862,-4.0912,-4.091,-4.0906,-4.0928,-4.0946,-4.1004,-4.0894,-4.0897,-4.0883,-4.0878,-4.0926,-4.0931,-4.0947,-4.1049,-4.1051,-4.0946,-4.0949,-4.0951,-4.0953,0,0,0,0,0,0,0,-4.0851,-4.086,-4.0961,-4.0913,-4.091,-4.0888,-4.089,-4.0956,-4.0935,-4.0896,-4.089,-4.0895,-4.0924,-4.0942,-4.0947,-4.1051,-4.0945,-4.095,-4.0954,-4.0956,-4.1255,-4.126,0,0,0,0,0,0,-4.0852,-4.0858,-4.096,-4.0962,-4.0869,-4.0894,-4.0897,-4.0925,-4.0934,-4.0931,-4.0898,-4.089,-4.0934,-4.0941,-4.0948,-4.1089,-4.0951,-4.0956,-4.0959,-4.125,-4.1256,-4.1261,0,0,0,0,0,0,-4.0849,-4.0862,-4.0958,-4.0908,-4.0919,-4.0901,-4.0934,-4.0928,-4.0946,-4.0936,-4.0932,-4.092,-4.0931,-4.094,-4.1024,-4.1089,-4.0959,-4.0964,-4.1245,-4.1252,-4.1259,-4.1373,0,0,0,0,0,0,-4.0846,-4.0862,-4.0906,-4.091,-4.0922,-4.1033,-4.0938,-4.0932,-4.0955,-4.0945,-4.0955,-4.0953,-4.0929,-4.1016,-4.1029,-4.1094,-4.0968,-4.1239,-4.1248,-4.1256,-4.1363,-4.1383,-4.1399,0,0,0,0,0,-4.0841,-4.0937,-4.0909,-4.0922,-4.0977,-4.1037,-4.1044,-4.1013,-4.0961,-4.1006,-4.1,-4.0953,-4.108,-4.1025,-4.1039,-4.1107,-4.1235,-4.1246,-4.1256,-4.1355,-4.1379,-4.1399,0,0,0,0,0,0,-4.0942,-4.0937,-4.0905,-4.1005,-4.1022,-4.1021,-4.1077,-4.1039,-4.1072,-4.1062,-4.1023,-4.1026,-4.1117,-4.112,-4.106,-4.1224,-4.1148,-4.1162,-4.1219,-4.1242,-4.126,-4.1258,-4.0973,0,0,0,0,0,-4.0976,-4.1024,-4.1017,-4.1106,-4.1116,-4.1096,-4.112,-4.1095,-4.1112,-4.1119,-4.1118,-4.1137,-4.1181,-4.1211,-4.1251,-4.1362,-4.1364,-4.1416,-4.1434,-4.145,-4.1463,-4.1524,-4.1547,-4.1296,-4.1296,-4.1295,0,0,-4.1046,-4.1049,-4.1082,-4.1126,-4.1136,-4.1189,-4.1102,-4.1161,-4.12,-4.1128,-4.1207,-4.1208,-4.1226,-4.1324,-4.1368,-4.133,-4.1532,-4.1463,-4.1475,-4.148,-4.1537,-4.1561,-4.1582,-4.1303,-4.1302,-4.13,0,0,-4.1201,-4.1208,-4.1283,-4.1295,-4.1312,-4.1298,-4.1316,-4.1321,-4.1319,-4.1397,-4.1345,-4.1391,-4.1468,-4.1483,-4.1501,-4.1664,-4.1623,-4.1678,-4.1774,-4.1834,-4.1854,-4.1871,-4.1931,-4.1953,-4.169,-4.1691,-4.1691,0,-4.1287,-4.1363,-4.1327,-4.139,-4.1412,-4.1348,-4.1425,-4.1439,-4.1468,-4.1485,-4.1442,-4.1537,-4.1545,-4.1647,-4.1687,-4.1703,-4.1724,-4.1677,-4.1854,-4.1871,-4.1887,-4.1943,-4.1966,-4.1697,-4.1697,-4.1696,-4.1695,0,-4.1469,-4.1522,-4.1581,-4.1611,-4.1639,-4.1709,-4.1684,-4.1717,-4.169,-4.1681,-4.1763,-4.1769,-4.1811,-4.1832,-4.1806,-4.1932,-4.1908,-4.186,-4.1784,-4.1918,-4.1971,-4.1992,-4.1707,-4.1705,-4.1703,-4.1701,0,0,-4.1689,-4.1698,-4.1721,-4.1734,-4.1748,-4.1789,-4.1857,-4.1896,-4.1926,-4.1948,-4.2005,-4.2072,-4.2028,-4.2048,-4.2023,-4.2076,-4.2206,-4.2021,-4.2021,-4.2057,-4.2348,-4.2385,-4.2411,-4.2178,-4.2182,-4.2185,-4.2347,0,-4.1844,-4.1959,-4.1929,-4.2044,-4.2094,-4.2035,-4.2094,-4.211,-4.2103,-4.2145,-4.2138,-4.2187,-4.2124,-4.2136,-4.2185,-4.218,-4.2265,-4.2168,-4.2233,-4.2236,-4.2232,-4.2438,-4.2478,-4.263,-4.2367,-4.237,-4.2373,0,-4.204,-4.207,-4.2191,-4.2197,-4.2217,-4.2271,-4.2306,-4.2346,-4.2363,-4.2355,-4.2378,-4.2343,-4.2411,-4.2333,-4.2427,-4.2362,-4.2387,-4.2389,-4.2394,-4.24,-4.2314,-4.2452,-4.2677,-4.2701,-4.2405,-4.2402,-4.24,0,-4.2192,-4.2262,-4.2344,-4.2356,-4.2366,-4.2405,-4.2411,-4.2424,-4.245,-4.2481,-4.2498,-4.2536,-4.2557,-4.2588,-4.2565,-4.251,-4.2664,-4.2583,-4.2661,-4.2662,-4.2697,-4.2696,-4.2931,-4.271,-4.271,-4.2709,-4.2709,0,-4.2369,-4.2446,-4.2412,-4.2462,-4.2547,-4.2511,-4.2596,-4.2595,-4.2607,-4.2658,-4.2608,-4.2657,-4.2622,-4.2668,-4.265,-4.2732,-4.2741,-4.2738,-4.2733,-4.2744,-4.2744,-4.2761,-4.275,-4.2715,-4.2714,-4.2713,-4.2712,0,-4.2554,-4.2534,-4.2619,-4.2621,-4.2623,-4.2686,-4.2688,-4.2735,-4.2725,-4.2789,-4.2802,-4.2787,-4.2838,-4.2817,-4.2872,-4.286,-4.2966,-4.2945,-4.296,-4.2956,-4.3035,-4.3029,-4.3291,-4.3325,-4.308,-4.3082,-4.3084,0,-4.2669,-4.2727,-4.2735,-4.2765,-4.2774,-4.2823,-4.2849,-4.2817,-4.2847,-4.2871,-4.2916,-4.2963,-4.2999,-4.3084,-4.3079,-4.3121,-4.3103,-4.3191,-4.3109,-4.3119,-4.3107,-4.3104,-4.3111,-4.3209,-4.3212,-4.3214,-4.3216,0,-4.2877,-4.2865,-4.2904,-4.2942,-4.2975,-4.3002,-4.3026,-4.3053,-4.3022,-4.3058,-4.311,-4.3138,-4.3194,-4.3242,-4.328,-4.3287,-4.3248,-4.3242,-4.3262,-4.3275,-4.3282,-4.3282,-4.3008,-4.3236,-4.3234,-4.3233,-4.3232,-4.3231,-4.3032,-4.3081,-4.3095,-4.3141,-4.3155,-4.3179,-4.3224,-4.3219,-4.3262,-4.3304,-4.3282,-4.3343,-4.336,-4.3406,-4.3419,-4.3467,-4.3433,-4.3462,-4.347,-4.3478,-4.3489,-4.3273,-4.3474,-4.3473,-4.3472,-4.3472,-4.3471,0,-4.3239,-4.3245,-4.3288,-4.3323,-4.336,-4.3318,-4.3342,-4.3376,-4.343,-4.3448,-4.3485,-4.3546,-4.3592,-4.359,-4.3634,-4.3673,-4.3656,-4.3686,-4.3683,-4.3686,-4.3517,-4.3496,-4.3699,-4.3698,-4.3698,-4.3698,-4.3698,-4.3698,-4.3351,-4.3433,-4.3422,-4.3511,-4.3516,-4.3575,-4.3593,-4.3615,-4.3629,-4.3699,-4.3737,-4.3735,-4.3746,-4.379,-4.3832,-4.383,-4.3849,-4.3886,-4.3878,-4.372,-4.3698,-4.3676,-4.3657,-4.389,-4.389,-4.4044,-4.4045,-4.4047]},{"header":{"parameterUnit":"m.s-1","parameterCategory":1,"la1":30.2991,"la2":30.254,"lo1":-89.0895,"lo2":-89.0444,"dy":0.0017,"dx":0.0017,"nx":28,"ny":28,"refTime":"2024-10-04T03:00:00:Z","depth":0,"parameterNumber":3,"parameterNumberName":"V-component_of_WINDS"},"data":[0,0,0,0,0,0,0,0,0,0,0,0,0,0,0,0,0,0,0,0,0,0,0,0,0,0,0,0,0,0,0,0,0,0,0,0,0,0,0,0,0,0,0,0,0,0,0,0,0,0,0,0,0,0,0,0,0,0,-3.3947,-3.3947,0,-3.3915,-3.3914,-3.3914,-3.3862,-3.3861,-3.386,-3.3859,-3.3826,-3.3826,-3.3826,0,0,0,0,0,0,0,0,0,0,0,0,0,-3.3965,-3.3965,-3.3947,-3.3947,-3.3947,-3.3915,-3.3914,-3.3914,-3.3862,-3.3861,-3.386,-3.3859,-3.3826,-3.3826,-3.3826,0,0,0,0,0,0,0,0,0,0,0,0,0,-3.3948,-3.3965,-3.3948,-3.3917,-3.3914,-3.3915,-3.3914,-3.3914,-3.3862,-3.3861,-3.386,-3.3858,-3.3826,-3.3826,-3.3826,-3.3854,0,0,-3.3826,-3.3826,0,0,0,0,0,0,0,0,-3.3949,-3.3947,-3.3922,-3.3919,-3.3916,-3.3891,-3.3908,-3.3894,-3.3863,-3.3882,-3.3859,-3.3858,-3.3849,-3.3847,-3.3844,-3.3853,-3.3851,-3.3826,-3.3826,-3.3826,-3.3826,0,0,0,0,0,0,0,-3.395,-3.3948,-3.3935,-3.3922,-3.3918,-3.3905,-3.3901,-3.3905,-3.3874,-3.388,-3.3876,-3.3873,-3.3847,-3.3844,-3.3843,-3.3851,-3.3826,-3.3826,-3.3826,-3.3826,-3.3881,-3.3882,0,0,0,0,0,0,-3.3956,-3.3949,-3.3936,-3.3934,-3.3929,-3.3906,-3.3901,-3.39,-3.3874,-3.3868,-3.3874,-3.3871,-3.3845,-3.3843,-3.3841,-3.3872,-3.3826,-3.3826,-3.3826,-3.388,-3.3881,-3.3883,0,0,0,0,0,0,-3.3956,-3.3955,-3.3937,-3.394,-3.3937,-3.3907,-3.3906,-3.39,-3.3898,-3.3869,-3.3863,-3.3877,-3.3844,-3.3841,-3.3851,-3.3871,-3.3826,-3.3826,-3.3878,-3.388,-3.3882,-3.3935,0,0,0,0,0,0,-3.3957,-3.3955,-3.3966,-3.3941,-3.3937,-3.3948,-3.3908,-3.3901,-3.3898,-3.3893,-3.387,-3.3865,-3.3842,-3.3852,-3.3851,-3.387,-3.3826,-3.3876,-3.3879,-3.3881,-3.3932,-3.3939,-3.3945,0,0,0,0,0,-3.3958,-3.3982,-3.3967,-3.3965,-3.395,-3.3949,-3.3947,-3.392,-3.3899,-3.391,-3.3891,-3.3866,-3.3869,-3.3853,-3.3852,-3.3871,-3.3875,-3.3878,-3.3881,-3.3928,-3.3937,-3.3945,0,0,0,0,0,0,-3.401,-3.3978,-3.3961,-3.3978,-3.3967,-3.394,-3.3952,-3.393,-3.3924,-3.392,-3.3886,-3.3882,-3.3896,-3.3884,-3.3868,-3.3897,-3.3868,-3.3871,-3.3904,-3.3912,-3.3919,-3.3921,-3.3826,0,0,0,0,0,-3.4024,-3.4026,-3.3998,-3.4016,-3.4011,-3.3983,-3.3981,-3.3962,-3.3948,-3.3943,-3.3926,-3.3914,-3.3912,-3.3911,-3.3908,-3.393,-3.3924,-3.3942,-3.3949,-3.3955,-3.3958,-3.3968,-3.3976,-3.3894,-3.3894,-3.3894,0,0,-3.4052,-3.4035,-3.4038,-3.4026,-3.4015,-3.4017,-3.3979,-3.3984,-3.3985,-3.3944,-3.3952,-3.3939,-3.3924,-3.394,-3.3946,-3.393,-3.3979,-3.3959,-3.3964,-3.3963,-3.3972,-3.398,-3.3987,-3.3896,-3.3896,-3.3895,0,0,-3.4104,-3.4092,-3.4105,-3.4094,-3.4078,-3.4059,-3.4062,-3.4039,-3.4029,-3.4037,-3.4005,-3.4007,-3.4004,-3.3995,-3.3989,-3.4038,-3.4014,-3.4038,-3.4073,-3.4084,-3.409,-3.4096,-3.4113,-3.4119,-3.4041,-3.4041,-3.4041,0,-3.4141,-3.4144,-3.4115,-3.4121,-3.4117,-3.4079,-3.4092,-3.4084,-3.4067,-3.4065,-3.4048,-3.4044,-3.4031,-3.4044,-3.4055,-3.4052,-3.4055,-3.404,-3.4092,-3.4097,-3.4102,-3.4117,-3.4124,-3.4044,-3.4044,-3.4044,-3.4043,0,-3.419,-3.4193,-3.4206,-3.419,-3.4187,-3.4197,-3.4169,-3.417,-3.415,-3.4133,-3.4141,-3.4124,-3.4117,-3.4118,-3.4099,-3.4129,-3.4119,-3.4098,-3.4068,-3.4113,-3.4127,-3.4133,-3.4049,-3.4048,-3.4047,-3.4046,0,0,-3.4275,-3.4243,-3.4248,-3.424,-3.4219,-3.4221,-3.4229,-3.4222,-3.4222,-3.4212,-3.4218,-3.4217,-3.4196,-3.419,-3.417,-3.4179,-3.4218,-3.4156,-3.4155,-3.4168,-3.4249,-3.4265,-3.4273,-3.4202,-3.4204,-3.4204,-3.425,0,-3.4323,-3.4335,-3.4308,-3.4327,-3.4329,-3.4293,-3.43,-3.4288,-3.4272,-3.4272,-3.4254,-3.4253,-3.4227,-3.4223,-3.423,-3.4212,-3.4234,-3.4208,-3.4207,-3.4208,-3.4212,-3.428,-3.4298,-3.4342,-3.4256,-3.4256,-3.4257,0,-3.438,-3.4373,-3.4391,-3.4369,-3.4369,-3.4376,-3.4367,-3.4366,-3.4352,-3.434,-3.4333,-3.4309,-3.4315,-3.4287,-3.4295,-3.4278,-3.4276,-3.4267,-3.4268,-3.4266,-3.4235,-3.4281,-3.4355,-3.4362,-3.4266,-3.4265,-3.4264,0,-3.444,-3.4434,-3.4445,-3.4439,-3.4414,-3.4419,-3.4409,-3.4393,-3.439,-3.4382,-3.438,-3.4373,-3.4369,-3.4364,-3.4339,-3.432,-3.435,-3.4319,-3.4339,-3.434,-3.4347,-3.4347,-3.4422,-3.4346,-3.4346,-3.4346,-3.4346,0,-3.4496,-3.4508,-3.4471,-3.4477,-3.4491,-3.446,-3.4474,-3.446,-3.4446,-3.4449,-3.4418,-3.4421,-3.4388,-3.4387,-3.4368,-3.4377,-3.4376,-3.4366,-3.436,-3.4369,-3.437,-3.4367,-3.4363,-3.4348,-3.4348,-3.4347,-3.4347,0,-3.4564,-3.454,-3.4549,-3.4523,-3.4517,-3.4528,-3.4507,-3.4512,-3.4494,-3.4498,-3.4497,-3.4469,-3.4467,-3.4441,-3.4434,-3.442,-3.4438,-3.4426,-3.4443,-3.4439,-3.4461,-3.4459,-3.4536,-3.4545,-3.4464,-3.4465,-3.4466,0,-3.4601,-3.461,-3.4586,-3.4586,-3.4577,-3.4577,-3.4574,-3.4544,-3.4542,-3.4526,-3.4533,-3.4529,-3.4523,-3.4522,-3.4501,-3.4495,-3.4483,-3.4511,-3.4482,-3.449,-3.4483,-3.4483,-3.4483,-3.4517,-3.4518,-3.4518,-3.4519,0,-3.467,-3.4658,-3.4654,-3.4647,-3.4644,-3.4637,-3.4627,-3.4629,-3.4596,-3.4596,-3.4593,-3.4589,-3.4581,-3.4577,-3.4567,-3.4556,-3.4532,-3.4528,-3.4533,-3.4541,-3.455,-3.4545,-3.4459,-3.4527,-3.4526,-3.4525,-3.4525,-3.4525,-3.4724,-3.473,-3.4714,-3.4711,-3.4701,-3.4693,-3.4697,-3.4679,-3.4677,-3.4668,-3.4651,-3.4651,-3.4636,-3.462,-3.4611,-3.4611,-3.4596,-3.4603,-3.4604,-3.4606,-3.4611,-3.455,-3.4609,-3.4608,-3.4608,-3.4608,-3.4608,0,-3.4791,-3.4779,-3.4777,-3.4765,-3.4762,-3.474,-3.4729,-3.4728,-3.4729,-3.4717,-3.4712,-3.4709,-3.4705,-3.4684,-3.4677,-3.4681,-3.467,-3.468,-3.4679,-3.4677,-3.4624,-3.4621,-3.4689,-3.4689,-3.4689,-3.4689,-3.4689,-3.4689,-3.4825,-3.4835,-3.482,-3.4824,-3.4812,-3.4812,-3.4807,-3.48,-3.479,-3.4788,-3.4784,-3.477,-3.4754,-3.4746,-3.4741,-3.4735,-3.4734,-3.4748,-3.4738,-3.4689,-3.4681,-3.4673,-3.467,-3.4748,-3.4748,-3.4791,-3.4791,-3.4792]}]]